| time (UTC) | temp F | wind direction | speed MPH | gust MPH | rain 1hr in | rain 24hr in | rain mn in | humidity % | barometer mb |
| 20260906190035 | 101 | 284 | 2.0 | 10.0 | 0.00 | 0.00 | 0.00 | 33 | 1012.7 |
| 20260906184537 | 102 | 211 | 4.0 | 8.0 | 0.00 | 0.00 | 0.00 | 32 | 1012.9 |
| 20260906183038 | 102 | 340 | 1.0 | 10.0 | 0.00 | 0.00 | 0.00 | 33 | 1013.0 |
| 20260906181542 | 101 | 91 | 3.0 | 12.0 | 0.00 | 0.00 | 0.00 | 32 | 1013.3 |
| 20260906180039 | 101 | 124 | 2.0 | 10.0 | 0.00 | 0.00 | 0.00 | 34 | 1013.6 |
| 20260906174536 | 101 | 142 | 1.0 | 5.0 | 0.00 | 0.00 | 0.00 | 35 | 1013.9 |
| 20260906173034 | 101 | 0 | 1.0 | 9.0 | 0.00 | 0.00 | 0.00 | 36 | 1014.1 |
| 20260906171535 | 101 | 327 | 1.0 | 4.0 | 0.00 | 0.00 | 0.00 | 36 | 1014.4 |
| 20260906170033 | 100 | 240 | 1.0 | 3.0 | 0.00 | 0.00 | 0.00 | 37 | 1014.6 |
| 20260906164534 | 99 | 32 | 2.0 | 4.0 | 0.00 | 0.00 | 0.00 | 40 | 1014.8 |
| 20260906163046 | 97 | 250 | 1.0 | 4.0 | 0.00 | 0.00 | 0.00 | 42 | 1014.9 |
| 20260906161544 | 95 | 262 | 1.0 | 5.0 | 0.00 | 0.00 | 0.00 | 46 | 1014.9 |
| 20260906160036 | 94 | 215 | 3.0 | 5.0 | 0.00 | 0.00 | 0.00 | 47 | 1015.0 |
| 20260906154541 | 92 | 0 | 1.0 | 5.0 | 0.00 | 0.00 | 0.00 | 50 | 1014.9 |
| 20260906153036 | 90 | 277 | 1.0 | 4.0 | 0.00 | 0.00 | 0.00 | 50 | 1014.8 |
| 20260906151537 | 89 | 342 | 1.0 | 3.0 | 0.00 | 0.00 | 0.00 | 53 | 1014.8 |
| 20260906150033 | 87 | 309 | 1.0 | 3.0 | 0.00 | 0.00 | 0.00 | 55 | 1014.9 |
| 20260906144537 | 85 | 297 | 1.0 | 3.0 | 0.00 | 0.00 | 0.00 | 60 | 1015.0 |
| 20260906143033 | 83 | 227 | 1.0 | 3.0 | 0.00 | 0.00 | 0.00 | 64 | 1015.0 |
| 20260906141537 | 81 | 218 | 0.0 | 3.0 | 0.00 | 0.00 | 0.00 | 68 | 1014.9 |
| 20260906140038 | 79 | 209 | 0.0 | 2.0 | 0.00 | 0.00 | 0.00 | 73 | 1014.9 |
| 20260906134535 | 78 | 0 | 0.0 | 0.0 | 0.00 | 0.00 | 0.00 | 77 | 1014.6 |
| 20260906133045 | 77 | 0 | 0.0 | 0.0 | 0.00 | 0.00 | 0.00 | 80 | 1014.6 |
| 20260906131536 | 76 | 0 | 0.0 | 0.0 | 0.00 | 0.00 | 0.00 | 80 | 1014.4 |
| 20260906130039 | 75 | 0 | 0.0 | 1.0 | 0.00 | 0.00 | 0.00 | 81 | 1014.3 |
| 20260906124536 | 75 | 0 | 0.0 | 0.0 | 0.00 | 0.00 | 0.00 | 81 | 1014.0 |
| 20260906123043 | 75 | 0 | 0.0 | 0.0 | 0.00 | 0.00 | 0.00 | 80 | 1013.8 |
| 20260906121543 | 75 | 0 | 0.0 | 0.0 | 0.00 | 0.00 | 0.00 | 79 | 1013.7 |
| 20260906120035 | 75 | 0 | 0.0 | 0.0 | 0.00 | 0.00 | 0.00 | 78 | 1013.6 |
| 20260906114538 | 76 | 0 | 0.0 | 0.0 | 0.00 | 0.00 | 0.00 | 79 | 1013.6 |
| 20260906113034 | 76 | 0 | 0.0 | 0.0 | 0.00 | 0.00 | 0.00 | 77 | 1013.5 |
| 20260906111535 | 76 | 0 | 0.0 | 0.0 | 0.00 | 0.00 | 0.00 | 77 | 1013.5 |
| 20260906110034 | 76 | 0 | 0.0 | 0.0 | 0.00 | 0.00 | 0.00 | 76 | 1013.5 |
| 20260906104534 | 76 | 0 | 0.0 | 0.0 | 0.00 | 0.00 | 0.00 | 76 | 1013.5 |
| 20260906103032 | 77 | 0 | 0.0 | 0.0 | 0.00 | 0.00 | 0.00 | 75 | 1013.5 |
| 20260906101537 | 77 | 0 | 0.0 | 0.0 | 0.00 | 0.00 | 0.00 | 75 | 1013.3 |
| 20260906100041 | 77 | 0 | 0.0 | 0.0 | 0.00 | 0.00 | 0.00 | 74 | 1013.5 |
| 20260906094532 | 77 | 0 | 0.0 | 0.0 | 0.00 | 0.00 | 0.00 | 74 | 1013.4 |
| 20260906093046 | 78 | 0 | 0.0 | 0.0 | 0.00 | 0.00 | 0.00 | 72 | 1013.2 |
| 20260906091535 | 78 | 0 | 0.0 | 0.0 | 0.00 | 0.00 | 0.00 | 71 | 1012.9 |
| 20260906090035 | 78 | 0 | 0.0 | 0.0 | 0.00 | 0.00 | 0.00 | 71 | 1013.0 |
| 20260906084534 | 78 | 0 | 0.0 | 4.0 | 0.00 | 0.00 | 0.00 | 71 | 1013.0 |
| 20260906083034 | 78 | 0 | 0.0 | 2.0 | 0.00 | 0.00 | 0.00 | 72 | 1013.0 |
| 20260906081547 | 77 | 0 | 2.0 | 8.0 | 0.00 | 0.00 | 0.00 | 73 | 1012.8 |
| 20260906080034 | 78 | 0 | 0.0 | 0.0 | 0.00 | 0.00 | 0.00 | 73 | 1012.6 |
| 20260906074550 | 78 | 0 | 0.0 | 0.0 | 0.00 | 0.00 | 0.00 | 71 | 1012.6 |
| 20260906073048 | 78 | 0 | 0.0 | 0.0 | 0.00 | 0.00 | 0.00 | 70 | 1012.5 |
| 20260906071534 | 78 | 0 | 0.0 | 0.0 | 0.00 | 0.00 | 0.00 | 70 | 1012.7 |
| 20260906070039 | 79 | 0 | 0.0 | 0.0 | 0.00 | 0.00 | 0.00 | 70 | 1012.6 |
| 20260906064533 | 79 | 0 | 0.0 | 0.0 | 0.00 | 0.00 | 0.00 | 72 | 1012.7 |
| 20260906063036 | 79 | 0 | 0.0 | 0.0 | 0.00 | 0.00 | 0.00 | 70 | 1012.7 |
| 20260906061536 | 80 | 0 | 0.0 | 0.0 | 0.00 | 0.00 | 0.00 | 69 | 1012.6 |
| 20260906060036 | 80 | 0 | 0.0 | 0.0 | 0.00 | 0.00 | 0.00 | 68 | 1012.6 |
| 20260906054538 | 80 | 0 | 0.0 | 0.0 | 0.00 | 0.00 | 0.00 | 65 | 1012.7 |
| 20260906053041 | 81 | 0 | 0.0 | 0.0 | 0.00 | 0.00 | 0.00 | 65 | 1012.8 |
| 20260906051533 | 81 | 0 | 0.0 | 0.0 | 0.00 | 0.00 | 0.00 | 65 | 1012.9 |
| 20260906050038 | 82 | 0 | 0.0 | 0.0 | 0.00 | 0.00 | 0.00 | 64 | 1012.9 |
| 20260906044535 | 82 | 0 | 0.0 | 0.0 | 0.00 | 0.00 | 0.00 | 65 | 1012.7 |
| 20260906043045 | 83 | 0 | 0.0 | 0.0 | 0.00 | 0.00 | 0.00 | 63 | 1012.7 |
| 20260906041535 | 83 | 0 | 0.0 | 0.0 | 0.00 | 0.00 | 0.00 | 61 | 1012.8 |
| 20260906040039 | 84 | 0 | 0.0 | 0.0 | 0.00 | 0.00 | 0.00 | 60 | 1013.0 |
| 20260906034535 | 85 | 0 | 0.0 | 0.0 | 0.00 | 0.00 | 0.00 | 58 | 1012.9 |
| 20260906033037 | 86 | 0 | 0.0 | 0.0 | 0.00 | 0.00 | 0.00 | 60 | 1012.7 |
| 20260906031535 | 86 | 0 | 0.0 | 0.0 | 0.00 | 0.00 | 0.00 | 55 | 1012.6 |
| 20260906030033 | 87 | 0 | 0.0 | 3.0 | 0.00 | 0.00 | 0.00 | 56 | 1012.5 |
| 20260906024537 | 87 | 0 | 0.0 | 0.0 | 0.00 | 0.00 | 0.00 | 53 | 1012.3 |
| 20260906023049 | 88 | 0 | 0.0 | 0.0 | 0.00 | 0.00 | 0.00 | 53 | 1012.1 |
| 20260906021536 | 89 | 0 | 0.0 | 0.0 | 0.00 | 0.00 | 0.00 | 49 | 1011.9 |
| 20260906020035 | 90 | 0 | 0.0 | 0.0 | 0.00 | 0.00 | 0.00 | 48 | 1012.0 |
| 20260906014546 | 92 | 0 | 0.0 | 0.0 | 0.00 | 0.00 | 0.00 | 48 | 1011.7 |
| 20260906013039 | 93 | 0 | 0.0 | 1.0 | 0.00 | 0.00 | 0.00 | 42 | 1011.5 |
| 20260906011544 | 95 | 0 | 0.0 | 0.0 | 0.00 | 0.00 | 0.00 | 42 | 1011.4 |
| 20260906010037 | 96 | 0 | 0.0 | 0.0 | 0.00 | 0.00 | 0.00 | 39 | 1011.4 |
| 20260906004538 | 97 | 0 | 0.0 | 2.0 | 0.00 | 0.00 | 0.00 | 36 | 1011.5 |
| 20260906003035 | 98 | 136 | 1.0 | 3.0 | 0.00 | 0.00 | 0.00 | 35 | 1011.5 |
| 20260906001532 | 98 | 0 | 0.0 | 6.0 | 0.00 | 0.00 | 0.00 | 34 | 1011.7 |
| 20260906000038 | 99 | 121 | 2.0 | 8.0 | 0.00 | 0.00 | 0.00 | 34 | 1011.5 |
| 20260905234545 | 99 | 134 | 1.0 | 8.0 | 0.00 | 0.00 | 0.00 | 33 | 1011.5 |
| 20260905233033 | 99 | 197 | 4.0 | 7.0 | 0.00 | 0.00 | 0.00 | 34 | 1011.3 |
| 20260905231534 | 100 | 132 | 2.0 | 9.0 | 0.00 | 0.00 | 0.00 | 33 | 1011.2 |
| 20260905230041 | 101 | 270 | 1.0 | 6.0 | 0.00 | 0.00 | 0.00 | 32 | 1011.2 |
| 20260905224538 | 101 | 140 | 2.0 | 7.0 | 0.00 | 0.00 | 0.00 | 31 | 1011.3 |
| 20260905223037 | 103 | 194 | 3.0 | 7.0 | 0.00 | 0.00 | 0.00 | 31 | 1011.2 |
| 20260905221540 | 104 | 191 | 5.0 | 12.0 | 0.00 | 0.00 | 0.00 | 31 | 1011.2 |
| 20260905220035 | 104 | 183 | 4.0 | 9.0 | 0.00 | 0.00 | 0.00 | 31 | 1011.5 |
| 20260905214533 | 105 | 219 | 4.0 | 10.0 | 0.00 | 0.00 | 0.00 | 30 | 1011.6 |
| 20260905213035 | 104 | 190 | 2.0 | 8.0 | 0.00 | 0.00 | 0.00 | 31 | 1011.8 |
| 20260905211533 | 104 | 204 | 2.0 | 10.0 | 0.00 | 0.00 | 0.00 | 31 | 1011.9 |
| 20260905210037 | 103 | 191 | 4.0 | 11.0 | 0.00 | 0.00 | 0.00 | 32 | 1012.1 |
| 20260905204535 | 103 | 174 | 2.0 | 11.0 | 0.00 | 0.00 | 0.00 | 32 | 1012.4 |
| 20260905203036 | 104 | 162 | 4.0 | 17.0 | 0.00 | 0.00 | 0.00 | 33 | 1012.5 |
| 20260905201536 | 103 | 129 | 3.0 | 9.0 | 0.00 | 0.00 | 0.00 | 33 | 1012.8 |
| 20260905200046 | 102 | 162 | 4.0 | 10.0 | 0.00 | 0.00 | 0.00 | 33 | 1013.0 |
| 20260905194533 | 101 | 117 | 4.0 | 10.0 | 0.00 | 0.00 | 0.00 | 34 | 1013.2 |
| 20260905193035 | 101 | 87 | 3.0 | 13.0 | 0.00 | 0.00 | 0.00 | 34 | 1013.5 |
| 20260905191538 | 100 | 189 | 3.0 | 10.0 | 0.00 | 0.00 | 0.00 | 35 | 1013.6 |